STARLINK-11193, 60195

Orbit data source: Space-Track

STARLINK-11193, 60195 is a payload satellite owned by SpaceX/Seattle (US) in LEO that was launched on Wed, 03 Jul 2024 UTC via an FALCON 9 launch vehicle from the Air Force Eastern Test Range (AFETR). Payload-class satellites include a variety of spacecraft equipped with specific instruments for various scientific and technological missions. These include communications satellites like Starlink; space stations such as the ISS; scientific satellites like the Hubble; Earth observation satellites from companies like Planet Labs, Umbra, and HawkEye 360; GPS; miniature CubeSats for education and research; and military/defense satellites.

Loading next visibility...
Identifier
60195, 2024-124N
Orbit
LEO
Last TLE update
15 hours ago
Origin
Manufacturer
SpaceX/Seattle
Mission
Operational Commercial Communications
Bus & Motor
STARLINK V2M, Unknown motor
Mass
730 kg wet, ~700 kg dry
Launch date (UTC)
2024-07-03 (1 year ago)
Launch vehicle
FALCON 9
Launch site
Air Force Eastern Test Range (AFETR)
Object type
Payload
Rocket body
Debris
Shape & HBR
Box + 2 Pan, 29 m
Radar Cross Section
36.964 m², Large (>1 m²)

Expand to show TLE details & history

TLE from 15 hours ago
0 STARLINK-11193
1 60195U 24124N   25181.80884515 -.00001277  00000-0 -56908-5 0  9992
2 60195  53.1587 322.9118 0000267  30.6843 329.4191 15.69711215 56971
Epoch: 2025-06-30T19:24Z
TLE epoch observation values (Epoch: 2025-06-30T19:24:44.22Z)
Latitude
-0°
Longitude
112.61422°
Altitude
360.483 km
Speed
7.694 km/s
True Right ascension
21h 31m 38s
True Declination
0° 00' 00"
Sunlit
Object was in full shadow at epoch
Visualization orbit readout
Latitude
-53.30003°
Longitude
17.80002°
Altitude
378.345 km
Speed
7.682 km/s
Apparent Right ascension
12h 16m 38s
Apparent Declination
-53° 47' 47"
Sunlit
Object is in full shadow
Visualization observer readout
Local Sidereal Time
21:56:47
Azimuth
227.673° WSW
Elevation
-62.751°
Doppler factor
1
Orbital elements
Apogee altitude
360.164 km
Perigee altitude
359.804 km
Semi-major axis
6,738.121 km
Eccentricity
0.00003
Inclination
53.1587°
RAAN
322.9118°
Arg. of periapsis
30.6843°
True anomaly
Unknown
Mean anomaly
329.4191°
Eccentric anomaly
Unknown
Mean motion
3.92405 °/min
Orbital period
91.74 mins
BSTAR
-0.0000056908
Loading maneuver chart data...
Loading SW <> Apogee altitude chart data...
Loading historical data...
Loading historical data...
Loading historical data...
Loading historical data...
Loading historical data...
Loading historical data...
Loading historical data...

STARLINK-11193 Visibility forecast

Observer location: undefined°, undefined°

Span
Click to sort rows by Start time (UTC) header in descending order
Start Az.
Max El. time (UTC)
Max El. Az.
Max El.
End time (UTC)
End Az.
4 mins2025-07-01 12:25:21.457Z243.687° WSW2025-07-01 12:27:21.457Z329.241° NNW41.453°2025-07-01 12:29:21.457Z40.625° NE
4 mins2025-07-01 18:50:21.457Z315.309° NNW2025-07-01 18:52:21.457Z100.581° ESE42.266°2025-07-01 18:54:21.457Z125.531° SE
|